DW1024 Weather Reports


time (UTC)temp
C
wind
direction
speed
KPH
gust
KPH
rain 1hr
cm
rain 24hr
cm
rain mn
cm
humidity
%
barometer
mb
20260905150301 23 309 4.8 16.1 0.00 0.43 0.43 65 1024.2
20260905144807 23 267 4.8 14.5 0.00 0.43 0.43 64 1024.2
20260905143301 22 236 4.8 12.9 0.00 0.43 0.43 66 1024.2
20260905141801 22 242 4.8 12.9 0.00 0.43 0.43 66 1024.2
20260905140301 22 213 4.8 12.9 0.00 0.43 0.43 64 1024.3
20260905134802 22 298 6.4 17.7 0.00 0.43 0.43 63 1024.5
20260905133755 22 213 4.8 16.1 0.00 0.43 0.43 68 1024.6
20260905133114 22 221 4.8 14.5 0.00 0.43 0.43 70 1024.8
20260905130308 21 216 4.8 16.1 0.00 0.43 0.43 72 1024.8
20260905124805 21 204 6.4 14.5 0.00 0.43 0.43 73 1024.8
20260905123303 20 313 6.4 17.7 0.00 0.43 0.43 77 1024.7
20260905121803 19 231 4.8 12.9 0.00 0.43 0.43 82 1024.8
20260905120302 18 329 4.8 14.5 0.00 0.43 0.43 83 1024.7
20260905114803 18 254 3.2 11.3 0.00 0.43 0.43 84 1024.7
20260905113304 18 264 3.2 11.3 0.00 0.43 0.43 85 1024.7
20260905111803 18 229 3.2 9.7 0.00 0.43 0.43 85 1024.8
20260905110304 18 194 3.2 12.9 0.00 0.43 0.43 88 1024.4
20260905104803 17 119 3.2 9.7 0.00 0.43 0.43 89 1024.5
20260905101804 16 218 1.6 6.4 0.03 0.43 0.43 90 1024.5
20260905100304 16 161 1.6 6.4 0.03 0.43 0.43 90 1024.6
20260905094804 16 159 0.0 4.8 0.03 0.43 0.43 90 1024.3
20260905090304 16 248 1.6 6.4 0.00 0.41 0.41 88 1024.2
20260905084801 16 229 1.6 3.2 0.00 0.41 0.41 88 1024.1
20260905083302 16 259 0.0 3.2 0.00 0.41 0.41 89 1024.1
20260905081804 16 226 0.0 3.2 0.00 0.41 0.41 88 1024.2
20260905080303 16 226 0.0 3.2 0.00 0.41 0.41 89 1024.1
20260905074803 16 226 0.0 1.6 0.00 0.41 0.41 91 1024.1
20260905073302 16 226 1.6 3.2 0.00 0.41 0.41 92 1023.9
20260905070305 15 255 0.0 1.6 0.03 0.41 0.41 93 1023.9
20260905064803 15 255 0.0 4.8 0.10 0.41 0.41 93 1023.9
20260905063305 15 157 1.6 4.8 0.10 0.41 0.41 92 1023.3
20260905061803 15 200 0.0 4.8 0.10 0.41 0.41 92 1023.0
20260905054811 15 59 0.0 1.6 0.03 0.30 0.30 91 1023.1
20260905053301 15 59 0.0 3.2 0.08 0.30 0.30 90 1023.0
20260905051805 15 59 0.0 1.6 0.30 0.30 0.30 91 1023.0
20260905050302 15 59 0.0 3.2 0.28 0.28 0.28 89 1022.9
20260905043303 17 38 3.2 6.4 0.23 0.23 0.05 75 1022.3
20260905040305 18 159 3.2 8.0 0.00 0.00 0.00 65 1021.6
20260905033302 18 84 4.8 14.5 0.00 0.00 0.00 65 1020.6
20260905030304 19 189 4.8 16.1 0.00 0.00 0.00 68 1020.1
20260905024805 21 188 3.2 11.3 0.00 0.00 0.00 67 1019.5
20260905023313 22 284 3.2 11.3 0.00 0.00 0.00 66 1019.2
20260905021802 22 269 1.6 12.9 0.00 0.00 0.00 66 1019.1
20260905020306 21 271 3.2 6.4 0.00 0.00 0.00 66 1019.0
20260905014803 22 234 3.2 9.7 0.00 0.00 0.00 65 1019.0
20260905013305 22 248 0.0 6.4 0.00 0.00 0.00 65 1018.8
20260905011812 22 300 1.6 6.4 0.00 0.00 0.00 64 1018.9
20260905010304 22 206 1.6 9.7 0.00 0.00 0.00 63 1018.8
20260905004805 23 275 3.2 14.5 0.00 0.00 0.00 61 1018.7
20260905003303 23 250 3.2 11.3 0.00 0.00 0.00 61 1018.8
20260905001804 22 229 3.2 11.3 0.00 0.00 0.00 61 1018.6
20260905000304 23 244 3.2 9.7 0.00 0.00 0.00 60 1018.3
20260904234801 23 265 3.2 9.7 0.00 0.00 0.00 60 1018.2
20260904233303 23 193 3.2 11.3 0.00 0.00 0.00 59 1018.2
20260904231803 23 218 4.8 16.1 0.00 0.00 0.00 58 1018.2
20260904230302 23 233 4.8 12.9 0.00 0.00 0.00 57 1018.2
20260904223300 23 290 3.2 6.4 0.00 0.00 0.00 57 1018.1
20260904221801 23 167 3.2 8.0 0.00 0.00 0.00 55 1017.9
20260904214804 24 202 4.8 16.1 0.00 0.00 0.00 54 1017.8
20260904213300 24 209 3.2 12.9 0.00 0.00 0.00 54 1017.7
20260904211801 24 218 3.2 11.3 0.00 0.00 0.00 53 1017.6
20260904210305 24 307 4.8 12.9 0.00 0.00 0.00 53 1017.7
20260904204801 24 276 3.2 9.7 0.00 0.00 0.00 53 1017.6
20260904203300 24 249 3.2 11.3 0.00 0.00 0.00 53 1017.6
20260904201801 23 234 1.6 6.4 0.00 0.00 0.00 54 1017.4
20260904200259 23 257 1.6 4.8 0.00 0.00 0.00 54 1017.4
20260904194759 23 242 1.6 8.0 0.00 0.00 0.00 54 1017.3
20260904193302 23 234 1.6 6.4 0.00 0.00 0.00 53 1017.3
20260904184759 25 255 1.6 6.4 0.00 0.00 0.00 50 1017.3
20260904183256 25 242 3.2 11.3 0.00 0.00 0.00 49 1017.0
20260904181756 25 214 1.6 4.8 0.00 0.00 0.00 48 1016.9
20260904180300 26 225 1.6 11.3 0.00 0.00 0.00 46 1016.8
20260904173257 27 236 4.8 14.5 0.00 0.00 0.00 44 1016.3
20260904171756 27 233 4.8 12.9 0.00 0.00 0.00 42 1016.2
20260904170259 28 286 6.4 19.3 0.00 0.00 0.00 40 1016.2
20260904164757 28 284 6.4 20.9 0.00 0.00 0.00 39 1016.2
20260904163259 29 267 6.4 17.7 0.00 0.00 0.00 37 1016.1
20260904161758 30 93 8.0 25.7 0.00 0.00 0.00 36 1016.3
20260904160256 30 283 6.4 22.5 0.00 0.00 0.00 35 1016.3
20260904154758 30 234 6.4 20.9 0.00 0.00 0.00 36 1016.5
20260904153258 31 236 8.0 20.9 0.00 0.00 0.00 35 1016.6